Back to catalog

USA 310

AliveMilitaryMEO
NORAD 46918·PAYLOAD·🇺🇸 United States

Launched Nov 13, 2020 from Cape Canaveral Space Force Station

Loading…

Next Passes (next 24 hours)

TLE

StaleSource: Mike McCants

Epoch: Oct 6, 2025, 10:50 UTC

1 46918U 20083A   25279.45191846 0.00000000  00000-0  00000-0 0    07
2 46918  58.7386  19.3197 0008643  41.6246 318.3754  3.76171233    05

Track USA 310 in real time with AllMySat

Download on the App Store